Location: Potomac
(46.8816°N, 113.5795°W)
Time: 06:07:13
(UTC+00:00)

Oscar 19 - Pass Details

Date: 01 July 2022
Orbit: 773 x 790 km, 98.8° (Epoch: 12 August)

Event Time Altitude Azimuth Distance (km) Brightness Sun altitude
Rises 10:26:36 0° 22° (NNE) 3,263 15.5 -10.4°
Reaches altitude 10° 10:29:08 10° 32° (NNE) 2,329 14.7 -10.1°
Maximum altitude 10:33:46 33° 96° (E) 1,276 12.1 -9.6°
Drops below altitude 10° 10:38:21 10° 161° (SSE) 2,314 12.8 -9.1°
Sets 10:40:52 0° 170° (S) 3,237 13.5 -8.8°
